Weather History for Edinburg, TX

Change the Weather History Date:

Wednesday, March 28, 2012

  Actual Average (KMFE) Record (KMFE)
Temperature  
Mean Temperature 80 °F 73 °F  
Max Temperature 89 °F 85 °F 104 °F (1984)
Min Temperature 70 °F 62 °F 43 °F (1955)
Degree Days  
Heating Degree Days 0 1  
Month to date heating degree days 39  
Since 1 July heating degree days 572  
Cooling Degree Days 14 9  
Month to date cooling degree days 190  
Year to date cooling degree days 349  
Growing Degree Days 30 (Base 50)    
Moisture  
Dew Point 66 °F    
Average Humidity 63    
Maximum Humidity 91    
Minimum Humidity 39    
Precipitation  
Precipitation 0.00 in 0.03 in 0.86 in (1957)
Month to date precipitation 0.94  
Year to date precipitation 3.10  
Sea Level Pressure  
Sea Level Pressure 29.93 in    
Wind  
Wind Speed 12 mph (SE)    
Max Wind Speed 21 mph    
Max Gust Speed 26 mph    
Visibility 9 miles    
Events      
T = Trace of Precipitation, MM = Missing Value Source: NWS Daily Summary

Daily Weather History Graph

Daily Weather History Graph

Search for Another Location

Airport:

Trip Planner

Search our weather history database for the weather conditions in past years. The results will help you decide how hot, cold, wet, or windy it might be!

Date:

Astronomy

Mar. 28, 2012 Rise Set
Actual Time 7:27 AM CDT 7:47 PM CDT
Civil Twilight 7:04 AM CDT 8:11 PM CDT
Nautical Twilight 6:36 AM CDT 8:38 PM CDT
Astronomical Twilight 6:09 AM CDT 9:05 PM CDT
Moon 11:14 AM CDT 12:23 AM CDT
Length of Visible Light 13h 07m
Length of Day
12h 20m
Waxing Crescent, 30% of the Moon is Illuminated
Mar 28
Waxing Crescent
Mar 30
First Quarter
Apr 6
Full
Apr 13
Last Quarter
Apr 21
New

Hourly Weather History & Observations

Time (CDT) Temp. Heat Index Dew Point Humidity Pressure Visibility Wind Dir Wind Speed Gust Speed Precip Events Conditions
12:15 AM 74.3 °F - 68.9 °F 83% 30.01 in 10.0 mi ESE 11.5 mph - N/A   Mostly Cloudy
12:35 AM 74.1 °F - 68.9 °F 84% 29.99 in 10.0 mi ESE 11.5 mph - N/A   Scattered Clouds
12:55 AM 73.9 °F - 68.9 °F 84% 29.98 in 10.0 mi ESE 10.4 mph - N/A   Scattered Clouds
7:15 AM 71.1 °F - 68.0 °F 90% 29.98 in 7.0 mi ESE 4.6 mph - N/A   Scattered Clouds
7:35 AM 70.5 °F - 67.8 °F 91% 29.98 in 5.0 mi East 5.8 mph - N/A   Clear
7:55 AM 70.9 °F - 68.2 °F 91% 29.99 in 5.0 mi ENE 5.8 mph - N/A   Clear
8:15 AM 71.4 °F - 68.7 °F 91% 29.99 in 5.0 mi NNE 8.1 mph - N/A   Scattered Clouds
8:35 AM 72.0 °F - 69.1 °F 91% 30.00 in 5.0 mi NE 9.2 mph - N/A   Scattered Clouds
8:55 AM 72.9 °F - 69.8 °F 90% 30.01 in 7.0 mi ENE 6.9 mph - N/A   Mostly Cloudy
9:15 AM 73.8 °F - 70.0 °F 88% 30.00 in 7.0 mi ENE 6.9 mph - N/A   Overcast
9:35 AM 75.0 °F - 70.2 °F 85% 30.01 in 10.0 mi ENE 8.1 mph - N/A   Overcast
9:55 AM 74.5 °F - 68.5 °F 82% 30.01 in 10.0 mi ENE 6.9 mph - N/A   Overcast
10:15 AM 75.2 °F - 68.7 °F 80% 30.01 in 10.0 mi East 5.8 mph - N/A   Overcast
10:35 AM 78.3 °F - 68.7 °F 72% 30.01 in 10.0 mi SE 8.1 mph - N/A   Overcast
10:55 AM 80.1 °F 82.8 °F 68.5 °F 68% 29.99 in 10.0 mi SE 12.7 mph - N/A   Mostly Cloudy
11:15 AM 81.7 °F 84.7 °F 68.4 °F 64% 29.99 in 10.0 mi SSE 9.2 mph - N/A   Mostly Cloudy
11:35 AM 82.9 °F 85.4 °F 66.9 °F 58% 29.99 in 10.0 mi SSE 13.8 mph 19.6 mph N/A   Mostly Cloudy
11:55 AM 84.4 °F 86.3 °F 65.5 °F 53% 29.98 in 10.0 mi SSE 18.4 mph 21.9 mph N/A   Mostly Cloudy
12:15 PM 84.9 °F 86.6 °F 64.9 °F 51% 29.98 in 10.0 mi South 11.5 mph 17.3 mph N/A   Mostly Cloudy
12:35 PM 84.6 °F 86.1 °F 64.4 °F 51% 29.97 in 10.0 mi SE 15.0 mph 20.7 mph N/A   Mostly Cloudy
12:55 PM 86.4 °F 87.6 °F 63.7 °F 47% 29.96 in 10.0 mi SSE 11.5 mph 19.6 mph N/A   Scattered Clouds
1:15 PM 86.4 °F 87.6 °F 63.7 °F 47% 29.95 in 10.0 mi SSE 15.0 mph - N/A   Mostly Cloudy
1:35 PM 87.6 °F 88.5 °F 63.0 °F 44% 29.94 in 10.0 mi SSE 17.3 mph 25.3 mph N/A   Mostly Cloudy
1:55 PM 88.3 °F 88.9 °F 62.8 °F 42% 29.93 in 10.0 mi SE 15.0 mph 21.9 mph N/A   Mostly Cloudy
2:15 PM 88.5 °F 88.9 °F 62.2 °F 41% 29.92 in 10.0 mi South 12.7 mph 21.9 mph N/A   Mostly Cloudy
2:35 PM 89.8 °F 90.0 °F 61.5 °F 39% 29.91 in 10.0 mi SE 17.3 mph 21.9 mph N/A   Mostly Cloudy
2:55 PM 89.1 °F 89.6 °F 62.6 °F 41% 29.91 in 7.0 mi SE 12.7 mph - N/A   Mostly Cloudy
3:15 PM 87.6 °F 88.5 °F 63.1 °F 44% 29.90 in 10.0 mi SE 12.7 mph - N/A   Mostly Cloudy
3:35 PM 87.3 °F 88.0 °F 63.1 °F 44% 29.90 in 10.0 mi SSE 17.3 mph 23.0 mph N/A   Overcast
3:55 PM 87.4 °F 88.5 °F 63.5 °F 45% 29.89 in 10.0 mi SSE 12.7 mph 19.6 mph N/A   Overcast
4:15 PM 88.2 °F 89.3 °F 63.5 °F 44% 29.88 in 10.0 mi SSE 13.8 mph 21.9 mph N/A   Mostly Cloudy
4:35 PM 88.3 °F 89.2 °F 63.1 °F 43% 29.87 in 10.0 mi SE 19.6 mph 26.5 mph N/A   Scattered Clouds
4:55 PM 88.3 °F 89.2 °F 63.0 °F 43% 29.86 in 10.0 mi SE 20.7 mph 24.2 mph N/A   Scattered Clouds
5:15 PM 88.9 °F 89.7 °F 63.0 °F 42% 29.86 in 10.0 mi SSE 17.3 mph 24.2 mph N/A   Scattered Clouds
5:35 PM 87.6 °F 88.5 °F 63.1 °F 44% 29.86 in 10.0 mi SE 18.4 mph 24.2 mph N/A   Clear
5:55 PM 87.4 °F 88.5 °F 63.7 °F 45% 29.85 in 10.0 mi SE 20.7 mph 25.3 mph N/A   Scattered Clouds
6:15 PM 86.5 °F 87.8 °F 64.0 °F 47% 29.85 in 10.0 mi SE 20.7 mph 24.2 mph N/A   Clear
6:35 PM 84.7 °F 86.1 °F 64.2 °F 50% 29.86 in 10.0 mi SE 16.1 mph 21.9 mph N/A   Clear
6:55 PM 83.5 °F 84.7 °F 63.9 °F 51% 29.86 in 10.0 mi SE 13.8 mph - N/A   Clear
7:15 PM 82.6 °F 83.9 °F 63.7 °F 53% 29.86 in 10.0 mi SE 15.0 mph 20.7 mph N/A   Clear
7:35 PM 81.9 °F 83.4 °F 64.0 °F 55% 29.86 in 10.0 mi SE 17.3 mph - N/A   Clear
7:55 PM 81.1 °F 82.8 °F 64.4 °F 57% 29.86 in 10.0 mi SSE 17.3 mph 24.2 mph N/A   Clear
8:15 PM 80.2 °F 82.0 °F 64.8 °F 59% 29.88 in 10.0 mi SE 13.8 mph 17.3 mph N/A   Clear
8:35 PM 79.5 °F - 65.3 °F 62% 29.88 in 10.0 mi SSE 12.7 mph - N/A   Clear
8:55 PM 78.8 °F - 65.5 °F 64% 29.89 in 10.0 mi SE 11.5 mph - N/A   Clear
9:15 PM 78.1 °F - 65.8 °F 66% 29.89 in 10.0 mi SE 12.7 mph - N/A   Clear
9:35 PM 77.2 °F - 66.4 °F 69% 29.90 in 10.0 mi SE 10.4 mph - N/A   Clear
9:55 PM 76.6 °F - 67.1 °F 72% 29.93 in 7.0 mi SE 9.2 mph - N/A   Clear
10:15 PM 76.1 °F - 67.3 °F 74% 29.95 in 7.0 mi SE 8.1 mph - N/A   Scattered Clouds
10:35 PM 76.5 °F - 68.4 °F 76% 29.95 in 7.0 mi SSE 10.4 mph - N/A   Overcast
10:55 PM 77.0 °F - 69.1 °F 76% 29.95 in 7.0 mi SE 11.5 mph 16.1 mph N/A   Overcast
11:15 PM 77.0 °F - 69.3 °F 77% 29.93 in 7.0 mi SE 12.7 mph - N/A   Overcast
11:35 PM 76.6 °F - 69.3 °F 78% 29.92 in 7.0 mi SE 15.0 mph 18.4 mph N/A   Overcast
11:55 PM 76.3 °F - 69.3 °F 79% 29.93 in 7.0 mi SE 9.2 mph - N/A   Overcast